Home   Weather   Grand Junction   Past weeks

Flag for USA Past Weather in Grand Junction, Colorado, USA — Yesterday and Last 2 Weeks

Now
33 °F

Overcast.


Feels Like: 27 °F
Forecast: 22 / 37 °F
Wind: 7 mph from Northwest

Location: Walker Field

Current Time: Jan 21, 2017 at 9:13:35 pm

Latest Report: Jan 21, 2017 at 7:53 pm


Visibility: 10 mi

Pressure: 29.78 "Hg (25.01 "Hg at 1398m altitude)

Humidity: 100%

Dew Point: 33 °F

Location of Grand JunctionLocation

Past Weather in Grand Junction — Graph

°F

Grand Junction Temperature Yesterday

Maximum temperature yesterday: 36 °F (at 12:53 pm)
Minimum temperature yesterday: 31 °F (at 12:34 am)
Average temperature yesterday: 32 °F

High & Low Weather Summary for the Past Weeks

 TemperatureHumidityPressure
High49 °F (Jan 11, 1:53 pm)100% (Jan 8, 6:53 am)30.76 "Hg (Jan 8, 6:53 am)
Low-2 °F (Jan 6, 11:53 pm)36% (Jan 16, 1:53 pm)29.32 "Hg (Jan 21, 6:24 am)
Average31 °F89%30.01 "Hg
* Reported Jan 6 7:53 pm — Jan 21 7:53 pm, Grand Junction, Weather by CustomWeather, © 2017

Note: Actual official high and low records may vary slightly from our data, if they occured in-between our weather recording intervals... More about our weather records

Advertising

Grand Junction Weather History for the Previous 24 Hours

Scroll right to see more
 ConditionsComfort  
Time TempWeatherWind HumidityBarometerVisibility
7:53 pm
Sat, Jan 21
33 °FOvercast.7 mph100%29.78 "Hg10 mi
6:53 pm34 °FMostly cloudy.6 mph97%29.72 "Hg10 mi
5:53 pm34 °FMostly cloudy.8 mph97%29.65 "Hg10 mi
4:53 pm35 °FMore clouds than sun.12 mph96%29.59 "Hg10 mi
3:53 pm35 °FLight rain. Mostly cloudy.13 mph96%29.54 "Hg10 mi
3:25 pm35 °FLight snow. Mostly cloudy.13 mph100%29.52 "Hg9 mi
2:53 pm35 °FLight rain. Mostly cloudy.10 mph100%29.49 "Hg9 mi
2:28 pm35 °FLight snow. Mostly cloudy.8 mph96%29.48 "Hg9 mi
1:53 pm35 °FLight rain. Mostly cloudy.5 mph96%29.44 "Hg9 mi
12:53 pm36 °FMostly cloudy.5 mph89%29.41 "Hg10 mi
11:53 am34 °FOvercast.7 mph97%29.40 "Hg8 mi
11:36 am34 °FLight snow. Fog.7 mph97%29.41 "Hg2 mi
10:53 am33 °FLight snow. Fog.8 mph100%29.41 "Hg1 mi
10:39 am32 °FLight snow. Ice fog.8 mph100%29.40 "Hg1 mi
9:53 am32 °FLight snow. Ice fog.7 mph100%29.39 "Hg1 mi
9:25 am31 °FLight snow. Ice fog.7 mph100%29.37 "Hg1 mi
8:53 am31 °FLight snow. Ice fog.7 mph100%29.36 "Hg1 mi
8:15 am30 °FLight snow. Ice fog.8 mph100%29.35 "Hg2 mi
7:53 am31 °FLight snow. Ice fog.9 mph100%29.35 "Hg1 mi
7:01 am31 °FLight snow. Ice fog.10 mph100%29.33 "Hg1 mi
6:24 am33 °FLight snow. Mostly cloudy.8 mph88%29.32 "Hg8 mi
5:53 am34 °FOvercast.8 mph82%29.32 "Hg10 mi
4:53 am34 °FOvercast.9 mph79%29.32 "Hg10 mi
3:53 am34 °FOvercast.12 mph79%29.33 "Hg10 mi
2:53 am34 °FOvercast.12 mph82%29.34 "Hg10 mi
1:53 am34 °FOvercast.9 mph82%29.34 "Hg10 mi
12:53 am34 °FPassing clouds.10 mph82%29.37 "Hg10 mi
11:53 pm
Fri, Jan 20
35 °FOvercast.10 mph78%29.41 "Hg10 mi
10:53 pm34 °FMostly cloudy.7 mph85%29.45 "Hg10 mi
9:53 pm34 °FOvercast.8 mph88%29.46 "Hg10 mi
Weather by CustomWeather, © 2017

See weather overviewHow to use our weather pages